STARLINK-36761, 67867

Orbit data source: Space-Track

STARLINK-36761, 67867 is a payload satellite owned by SpaceX/Seattle (US) in LEO that was launched on Fri, 20 Feb 2026 UTC via an FALCON 9 launch vehicle from the Air Force Eastern Test Range (AFETR). Payload-class satellites include a variety of spacecraft equipped with specific instruments for various scientific and technological missions. These include communications satellites like Starlink; space stations such as the ISS; scientific satellites like the Hubble; Earth observation satellites from companies like Planet Labs, Umbra, and HawkEye 360; GPS; miniature CubeSats for education and research; and military/defense satellites.

Loading next visibility...
Identifier
67867, 2026-034T
Orbit
LEO
Country
Flag of USUS
Related business
Manufacturer
SpaceX/Seattle
Mission
Operational Commercial Communications
Bus & Motor
STARLINK V2MO, Unknown motor
Mass
575 kg wet, ~530 kg dry
Launch date (UTC)
2026-02-20 (4 months ago)
Launch vehicle
FALCON 9
Launch site
Air Force Eastern Test Range (AFETR)
Object type
Payload
Rocket body
Debris
Shape & HBR
Box + 2 Pan, 17.7 m
Radar Cross Section
36.964 m², Large (>1 m²)

Expand to show TLE details & history
Last TLE update: 21 hours ago

TLE from 21 hours ago
0 STARLINK-36761
1 67867U 26034T   26170.96033793 -.00003320  00000-0 -10003-3 0  9992
2 67867  53.1612  89.2099 0001657  88.7819 271.3372 15.30193286 19699
Epoch: 2026-06-19T23:02Z
TLE epoch observation values (Epoch: 2026-06-19T23:02:53.197Z)
Latitude
0.00003°
Longitude
-164.69355°
Altitude
476.109 km
Speed
7.629 km/s
True Right ascension
05h 56m 50s
True Declination
0° 00' 00"
Sunlit
Object was in daylight at epoch
Visualization orbit readout
Latitude
Unknown
Longitude
Unknown
Altitude
Unknown
Speed
Unknown
Apparent Right ascension
Unknown
Apparent Declination
Unknown
Sunlit
N/A
Visualization observer readout
Local Sidereal Time
07:17:28
Azimuth
Unknown
Elevation
Unknown
Doppler factor
Unknown
Orbital elements
Apogee altitude
476.627 km
Perigee altitude
474.356 km
Semi-major axis
6,853.628 km
Eccentricity
0.00017
Inclination
53.1612°
RAAN
89.2099°
Arg. of periapsis
88.7819°
True anomaly
271.31822°
Mean anomaly
271.3372°
Eccentric anomaly
271.32771°
Mean motion
3.82527 °/min
Orbital period
94.11 mins
BSTAR
-0.00010003
Loading maneuver chart data...
Computing Atmospheric mass density...
Loading historical data...
Loading historical data...
Loading historical data...
Loading historical data...
Loading historical data...
Loading historical data...
Loading historical data...

Documentation

Showing up to 5 results
|